CDT,Max TemperatureF,Mean TemperatureF,Min TemperatureF,Max Dew PointF,MeanDew PointF,Min DewpointF,Max Humidity, Mean Humidity, Min Humidity, Max Sea Level PressureIn, Mean Sea Level PressureIn, Min Sea Level PressureIn, Max VisibilityMiles, Mean VisibilityMiles, Min VisibilityMiles, Max Wind SpeedMPH, Mean Wind SpeedMPH, Max Gust SpeedMPH,PrecipitationIn, CloudCover, Events, WindDirDegrees
2011-9-1,104,90,78,70,66,61,74,50,25,29.97,29.90,29.85,10,10,8,16,11,24,0.00,0,,202
2011-9-2,100,88,75,68,63,57,67,47,24,29.95,29.90,29.85,10,10,8,13,8,17,0.00,0,,201
2011-9-3,97,82,69,70,67,64,94,71,39,29.95,29.88,29.80,10,8,2,24,8,32,0.17,3,Rain-Thunderstorm,206
2011-9-4,78,68,59,68,53,41,93,62,29,30.08,30.00,29.89,10,10,4,16,9,24,0.00,3,,345
2011-9-5,72,61,51,50,45,41,93,63,33,30.15,30.10,30.07,10,10,10,22,11,28,0.00,0,,20
2011-9-6,73,58,44,46,44,40,93,63,30,30.20,30.15,30.11,10,10,10,15,8,24,0.00,0,,26
2011-9-7,75,60,45,47,42,34,90,57,22,30.23,30.18,30.14,10,10,10,15,8,30,0.00,0,,10
2011-9-8,80,62,46,55,48,43,86,60,32,30.18,30.10,30.00,10,10,10,17,7,28,0.00,0,,348
2011-9-9,77,68,60,63,58,49,96,74,41,29.99,29.95,29.90,10,9,3,14,5,,0.11,8,Rain,3
2011-9-10,77,68,57,63,61,56,100,88,55,30.04,29.98,29.94,10,6,1,13,3,,0.01,6,Rain,43
2011-9-11,84,70,57,61,57,54,94,72,35,30.08,30.04,30.00,10,7,2,7,1,,0.00,1,,252
2011-9-12,90,74,59,60,56,51,90,59,27,30.08,29.99,29.89,10,10,8,17,8,24,0.00,0,,212
2011-9-13,82,73,64,58,53,45,73,55,28,29.99,29.93,29.85,10,10,10,12,8,,0.00,1,,335
2011-9-14,64,55,44,52,47,34,78,66,48,30.26,30.10,29.99,10,10,9,21,8,26,0.02,2,Rain,16
2011-9-15,63,50,37,35,30,21,83,49,21,30.40,30.33,30.28,10,10,10,15,8,20,0.00,0,,43
2011-9-16,59,54,50,46,40,35,74,59,46,30.32,30.28,30.23,10,10,10,10,7,,0.02,8,Rain,94
2011-9-17,68,60,53,51,46,43,72,61,42,30.24,30.18,30.11,10,10,10,14,6,,0.00,8,Rain,122
2011-9-18,68,62,59,63,58,49,96,87,62,30.11,30.01,29.93,10,5,1,12,6,,0.46,8,Rain-Thunderstorm,151
2011-9-19,77,67,57,63,58,47,100,82,36,30.05,29.99,29.94,10,7,1,14,6,17,0.00,6,,299
2011-9-20,81,67,53,58,53,49,96,65,33,30.04,29.99,29.91,10,9,5,12,7,18,0.01,0,,179
2011-9-21,75,66,57,54,45,37,78,51,25,30.11,30.02,29.95,10,10,10,17,7,24,0.00,1,,281
2011-9-22,69,58,46,49,44,38,90,65,35,30.17,30.12,30.09,10,10,10,12,4,16,0.00,1,,305
2011-9-23,69,56,43,46,41,37,87,62,33,30.13,30.08,30.01,10,10,10,12,4,,0.00,3,,19
2011-9-24,64,52,41,45,40,35,93,64,34,30.02,29.98,29.92,10,10,6,10,5,17,0.00,2,,25
2011-9-25,66,52,39,47,42,37,93,73,41,29.95,29.88,29.81,10,9,2,12,5,,0.00,1,,335
2011-9-26,66,54,45,55,48,42,94,80,45,29.81,29.75,29.68,10,9,4,22,8,29,0.26,6,Rain,263
2011-9-27,71,58,48,55,49,45,94,73,42,29.87,29.80,29.70,10,10,9,21,12,26,0.00,3,,306
2011-9-28,73,64,55,54,52,46,94,75,41,29.89,29.84,29.81,10,9,4,10,4,,0.06,5,,299
2011-9-29,79,66,53,55,44,33,89,54,26,29.98,29.87,29.82,10,10,8,29,12,36,0.00,1,,274
2011-9-30,71,60,45,44,39,36,74,49,29,30.17,30.10,29.99,10,10,10,22,15,29,0.00,0,,336